Previsão horária em Jugowa

Hoje, 21 Junho, Segunda-feira

Tempo Temperatura Precipitação Vento Pressão Humidade
00:00 +23°C° 0 mm 2 m/s 734 mmHg 74%
01:00 +23°C° 0 mm 2 m/s 733 mmHg 75%
02:00 +21°C° 0 mm 2 m/s 733 mmHg 76%
03:00 +21°C° 0 mm 2 m/s 733 mmHg 77%
04:00 +20°C° 0 mm 2 m/s 733 mmHg 78%
05:00 +23°C° 0 mm 2 m/s 733 mmHg 73%
06:00 +25°C° 0 mm 2 m/s 733 mmHg 69%
07:00 +27°C° 0 mm 2 m/s 733 mmHg 64%
08:00 +28°C° 0 mm 2 m/s 733 mmHg 59%
09:00 +30°C° 0 mm 2 m/s 733 mmHg 54%
10:00 +31°C° 0 mm 3 m/s 733 mmHg 49%
11:00 +31°C° 0 mm 3 m/s 733 mmHg 47%
12:00 +32°C° 0 mm 2 m/s 733 mmHg 46%
13:00 +32°C° 0 mm 2 m/s 733 mmHg 44%
14:00 +30°C° 1.2 mm 3 m/s 733 mmHg 55%
15:00 +28°C° 1.2 mm 4 m/s 733 mmHg 66%
16:00 +26°C° 1.2 mm 5 m/s 733 mmHg 77%
17:00 +23°C° 2.6 mm 4 m/s 734 mmHg 82%
18:00 +22°C° 2.6 mm 3 m/s 734 mmHg 88%
19:00 +20°C° 2.6 mm 2 m/s 734 mmHg 93%
20:00 +21°C° 1 mm 1 m/s 734 mmHg 92%
21:00 +20°C° 1 mm 1 m/s 734 mmHg 91%
22:00 +18°C° 1 mm 0 m/s 735 mmHg 91%
23:00 +20°C° 0.1 mm 1 m/s 735 mmHg 91%

Amanhã, 22 Junho, Terça-feira

Tempo Temperatura Precipitação Vento Pressão Humidade
00:00 +19°C° 0.1 mm 1 m/s 734 mmHg 92%
01:00 +19°C° 0.1 mm 1 m/s 734 mmHg 93%
02:00 +19°C° 0 mm 1 m/s 734 mmHg 92%
03:00 +19°C° 0 mm 1 m/s 735 mmHg 92%
04:00 +18°C° 0 mm 1 m/s 735 mmHg 91%
05:00 +19°C° 0.1 mm 1 m/s 735 mmHg 90%
06:00 +20°C° 0.1 mm 1 m/s 736 mmHg 89%
07:00 +21°C° 0.1 mm 1 m/s 736 mmHg 88%
08:00 +21°C° 0.4 mm 2 m/s 736 mmHg 86%
09:00 +21°C° 0.4 mm 2 m/s 736 mmHg 84%
10:00 +23°C° 0.4 mm 2 m/s 737 mmHg 82%
11:00 +22°C° 0.1 mm 3 m/s 737 mmHg 82%
12:00 +22°C° 0.1 mm 3 m/s 737 mmHg 81%
13:00 +23°C° 0.1 mm 4 m/s 737 mmHg 81%
14:00 +24°C° 0.1 mm 3 m/s 737 mmHg 81%
15:00 +24°C° 0.1 mm 3 m/s 737 mmHg 81%
16:00 +24°C° 0.1 mm 3 m/s 737 mmHg 80%
17:00 +24°C° 0.2 mm 3 m/s 737 mmHg 83%
18:00 +23°C° 0.2 mm 2 m/s 737 mmHg 85%
19:00 +23°C° 0.2 mm 2 m/s 737 mmHg 88%
20:00 +21°C° 0.5 mm 2 m/s 738 mmHg 89%
21:00 +20°C° 0.5 mm 2 m/s 738 mmHg 91%
22:00 +20°C° 0.5 mm 2 m/s 738 mmHg 93%
23:00 +19°C° 0.3 mm 2 m/s 738 mmHg 93%

Depois de amanhã, 23 Junho, Quarta-feira

Tempo Temperatura Precipitação Vento Pressão Humidade
00:00 +19°C° 0.3 mm 2 m/s 739 mmHg 93%
01:00 +18°C° 0.3 mm 2 m/s 739 mmHg 93%
02:00 +17°C° 0.1 mm 2 m/s 739 mmHg 94%
03:00 +17°C° 0.1 mm 2 m/s 739 mmHg 94%
04:00 +16°C° 0.1 mm 2 m/s 739 mmHg 95%
05:00 +16°C° 0.1 mm 2 m/s 739 mmHg 94%
06:00 +16°C° 0.1 mm 3 m/s 740 mmHg 93%
07:00 +16°C° 0.1 mm 3 m/s 740 mmHg 92%
08:00 +17°C° 0.2 mm 2 m/s 740 mmHg 90%
09:00 +17°C° 0.2 mm 2 m/s 741 mmHg 88%
10:00 +18°C° 0.2 mm 2 m/s 741 mmHg 87%
11:00 +19°C° 0.2 mm 2 m/s 741 mmHg 85%
12:00 +19°C° 0.2 mm 2 m/s 741 mmHg 83%
13:00 +21°C° 0.2 mm 1 m/s 741 mmHg 81%
14:00 +21°C° 0.3 mm 1 m/s 741 mmHg 83%
15:00 +21°C° 0.3 mm 1 m/s 741 mmHg 85%
16:00 +20°C° 0.3 mm 2 m/s 741 mmHg 87%
17:00 +20°C° 0 mm 2 m/s 741 mmHg 89%
18:00 +19°C° 0 mm 2 m/s 741 mmHg 90%
19:00 +18°C° 0 mm 2 m/s 741 mmHg 92%
20:00 +18°C° 0 mm 2 m/s 741 mmHg 93%
21:00 +17°C° 0 mm 2 m/s 741 mmHg 93%
22:00 +18°C° 0 mm 1 m/s 742 mmHg 94%
23:00 +18°C° 0 mm 1 m/s 741 mmHg 94%

24 Junho, Quinta-feira

Tempo Temperatura Precipitação Vento Pressão Humidade
00:00 +18°C° 0 mm 1 m/s 741 mmHg 93%
01:00 +16°C° 0 mm 1 m/s 741 mmHg 93%
02:00 +16°C° 0 mm 1 m/s 741 mmHg 93%
03:00 +16°C° 0 mm 1 m/s 741 mmHg 93%
04:00 +16°C° 0 mm 1 m/s 741 mmHg 93%
05:00 +16°C° 0.1 mm 1 m/s 741 mmHg 92%
06:00 +18°C° 0.1 mm 1 m/s 741 mmHg 90%
07:00 +19°C° 0.1 mm 1 m/s 741 mmHg 89%
08:00 +20°C° 0 mm 1 m/s 741 mmHg 84%
09:00 +22°C° 0 mm 1 m/s 741 mmHg 80%
10:00 +23°C° 0 mm 1 m/s 741 mmHg 75%
11:00 +24°C° 0 mm 1 m/s 741 mmHg 74%
12:00 +24°C° 0 mm 1 m/s 741 mmHg 73%
13:00 +25°C° 0 mm 1 m/s 741 mmHg 73%
14:00 +25°C° 0.1 mm 1 m/s 740 mmHg 72%
15:00 +25°C° 0.1 mm 1 m/s 740 mmHg 72%
16:00 +25°C° 0.1 mm 1 m/s 740 mmHg 71%
17:00 +25°C° 0.1 mm 1 m/s 740 mmHg 76%
18:00 +24°C° 0.1 mm 1 m/s 740 mmHg 80%
19:00 +24°C° 0.1 mm 2 m/s 739 mmHg 84%
20:00 +21°C° 0.2 mm 2 m/s 739 mmHg 87%
21:00 +21°C° 0.2 mm 1 m/s 739 mmHg 91%
22:00 +20°C° 0.2 mm 1 m/s 739 mmHg 94%
23:00 +20°C° 2.2 mm 1 m/s 738 mmHg 95%

25 Junho, Sexta-feira

Tempo Temperatura Precipitação Vento Pressão Humidade
00:00 +20°C° 2.2 mm 1 m/s 738 mmHg 97%
01:00 +18°C° 2.2 mm 2 m/s 738 mmHg 98%
02:00 +18°C° 0 mm 2 m/s 738 mmHg 98%
03:00 +18°C° 0 mm 2 m/s 738 mmHg 98%
04:00 +18°C° 0 mm 2 m/s 737 mmHg 98%
05:00 +18°C° 0.1 mm 2 m/s 738 mmHg 96%
06:00 +18°C° 0.1 mm 3 m/s 738 mmHg 95%
07:00 +19°C° 0.1 mm 3 m/s 738 mmHg 94%
08:00 +19°C° 0.1 mm 3 m/s 738 mmHg 91%
09:00 +20°C° 0.1 mm 4 m/s 738 mmHg 88%
10:00 +20°C° 0.1 mm 4 m/s 738 mmHg 85%
11:00 +21°C° 0.9 mm 4 m/s 738 mmHg 84%
12:00 +21°C° 0.9 mm 4 m/s 738 mmHg 84%
13:00 +21°C° 0.9 mm 4 m/s 738 mmHg 83%
14:00 +20°C° 1.6 mm 3 m/s 738 mmHg 86%
15:00 +20°C° 1.6 mm 3 m/s 738 mmHg 88%
16:00 +19°C° 1.6 mm 3 m/s 738 mmHg 91%
17:00 +19°C° 1.5 mm 3 m/s 738 mmHg 92%
18:00 +18°C° 1.5 mm 2 m/s 738 mmHg 93%
19:00 +18°C° 1.5 mm 2 m/s 738 mmHg 94%
20:00 +18°C° 0.4 mm 2 m/s 739 mmHg 93%
21:00 +17°C° 0.4 mm 2 m/s 739 mmHg 93%
22:00 +17°C° 0.4 mm 2 m/s 739 mmHg 92%
23:00 +17°C° 0 mm 2 m/s 739 mmHg 93%

26 Junho, Sábado

Tempo Temperatura Precipitação Vento Pressão Humidade
00:00 +16°C° 0 mm 2 m/s 739 mmHg 94%
01:00 +16°C° 0 mm 2 m/s 739 mmHg 94%
02:00 +16°C° 0 mm 2 m/s 740 mmHg 95%
03:00 +16°C° 0 mm 2 m/s 740 mmHg 95%
04:00 +16°C° 0 mm 2 m/s 740 mmHg 96%
05:00 +16°C° 0 mm 3 m/s 740 mmHg 93%
06:00 +17°C° 0 mm 3 m/s 740 mmHg 90%
07:00 +18°C° 0 mm 4 m/s 740 mmHg 88%
08:00 +19°C° 0.2 mm 4 m/s 740 mmHg 84%
09:00 +19°C° 0.2 mm 4 m/s 740 mmHg 80%
10:00 +20°C° 0.2 mm 5 m/s 740 mmHg 77%
11:00 +20°C° 0.3 mm 5 m/s 740 mmHg 74%
12:00 +21°C° 0.3 mm 5 m/s 740 mmHg 71%
13:00 +21°C° 0.3 mm 5 m/s 740 mmHg 68%
14:00 +20°C° 0.1 mm 5 m/s 740 mmHg 70%
15:00 +20°C° 0.1 mm 6 m/s 740 mmHg 71%
16:00 +19°C° 0.1 mm 6 m/s 740 mmHg 72%
17:00 +17°C° 0 mm 5 m/s 740 mmHg 76%
18:00 +18°C° 0 mm 4 m/s 740 mmHg 79%
19:00 +17°C° 0 mm 4 m/s 740 mmHg 82%
20:00 +16°C° 0 mm 3 m/s 740 mmHg 85%
21:00 +15°C° 0 mm 2 m/s 740 mmHg 89%
22:00 +14°C° 0 mm 2 m/s 741 mmHg 92%
23:00 +14°C° 0 mm 2 m/s 741 mmHg 93%
Mostrar mais

Necessitamos do seu Consentimento

A Meteoprog e os seus Fornecedores de Serviços podem armazenar e aceder a dados pessoais como cookies, identificadores do dispositivo ou outras tecnologias semelhantes existentes no seu dispositivo e processar estes dados para personalizar conteúdos e anúncios, assim como funcionalidades nas redes sociais e análise de tráfego.

  • Armazenar e/ou aceder a informações no seu dispositivo

    Os cookies, identificadores do dispositivo ou outras informações podem ser armazenados ou acedidos no seu dispositivo, para os fins acima indicados.

  • Anúncios e conteúdos personalizados, medição de anúncios e conteúdos, dados sobre o público-alvo e desenvolvimento de produtos

    Os anúncios e os conteúdos podem ser personalizados com base num perfil. Podem ser adicionados dados adicionais para uma maior personalização dos anúncios e dos conteúdos. A eficácia dos anúncios e dos conteúdos pode ser medida. Podem ser obtidas informações sobre o público que visualizou os anúncios e os conteúdos. Estes dados podem ser usados para desenvolver ou melhorar sistemas, softwares ou a experiência do utilizador.

Ao clicar em "Eu concordo”, permitirá o uso de cookies, identificadores do dispositivo e web beacons mencionados ou outras tecnologias semelhantes. As configurações do navegador do seu dispositivo podem ser alteradas.

Para certos fins, podem ser invocados interesses legítimos ao invés de consentimento. Pode ler mais informação sobre este assunto na nossa Política de Privacidade e Cookies.